Simultaneous Nadir Overpasses (SNOs) Predictions

Prediction of SNOs between NOAA-19 and TERRA Satellite Orbit:

Table of predicted SNOs for the next 14.0 days since TLE Epoch: 11/30/2019
Index Date (NOAA-19) Time (NOAA-19) Lat,Lon (NOAA-19) SZA (NOAA-19 ) Date (TERRA) Time (TERRA) Lat,Lon (TERRA) SZA (TERRA ) Distance(km) Time Diff (sec)
1 11/30/2019 22:39:39 -78.97, 45.09 78.18 11/30/2019 22:39:37 -78.97, 45.05 78.18 0.93 2
2 12/03/2019 04:13:01 78.99, 141.64 102.16 12/03/2019 04:13:20 78.99, 141.73 102.17 2.10 19
3 12/03/2019 05:04:00 -78.95, -50.73 77.86 12/03/2019 05:02:48 -78.96, -50.84 77.88 2.56 72
4 12/05/2019 09:46:22 -78.98,-121.51 77.56 12/05/2019 09:47:04 -79.01,-121.57 77.52 4.11 42
5 12/05/2019 10:37:23 78.99, 45.69 102.45 12/05/2019 10:36:31 78.97, 45.81 102.43 3.12 52
6 12/07/2019 15:19:45 79.00, -24.95 102.70 12/07/2019 15:20:47 79.02, -24.94 102.74 2.32 62
7 12/07/2019 16:10:44 -78.99, 142.40 77.30 12/07/2019 16:10:15 -78.99, 142.50 77.30 2.23 29
8 12/09/2019 21:44:07 79.00,-120.91 102.92 12/09/2019 21:43:58 79.00,-120.90 102.92 0.42 9
9 12/12/2019 03:17:26 -79.01, -24.25 76.90 12/12/2019 03:17:41 -79.01, -24.23 76.89 0.57 15




NCC Satellite Simultaneous Nadir Overpasses (SNOs) Prediction Service
